User: anonymous   Login
Location: Unspecified
(0.0000°N, 0.0000°E)
Time: 09:40:23
(UTC+00:00)
Language:

GOES 6 - Orbit

View from above orbital plane
View from above orbital plane
View from above satellite
View from above satellite

Ground track
Ground track

The orbit data is extracted from the following two-line orbital elements,

1 14050U 83041A   17295.10574012 -.00000240  00000-0  00000+0 0  9996
2 14050  14.5090 348.5858 0003981 237.1109 120.2276  1.00236447184376
Epoch (UTC): 22 October 2017 02:32:15
Eccentricity: 0.0003981
inclination: 14.5090°
perigee height: 35779 km
apogee height: 35813 km
right ascension of ascending node: 348.5858°
argument of perigee: 237.1109°
revolutions per day: 1.00236447
mean anomaly at epoch: 120.2276°
orbit number at epoch: 18437

The dashed part of the orbit path shows where the satellite is in the earth's shadow,  

DLR